Wind_Speed
15 16 16 16 16 16 15 15 14 13 13 12 12 13 12 12 13 12 12 13 13 13 13 13 14 14 13 13 13 12 13 13 13 14 14 14 15 15 15 14 14 13 13
17 18 16 15 15 15 14 14 13 13 13 12 12 12 13 13 12 12 13 13 13 13 13 13 14 13 14 14 14 14 14 14 13 14 14 15 15 15 15 15 14 13 13
18 18 16 15 15 14 13 13 12 12 12 12 12 12 13 13 13 13 13 14 14 14 14 14 13 13 14 13 14 14 14 14 14 14 15 15 15 15 14 15 14 14 14
18 17 15 14 14 14 13 13 12 12 12 12 11 12 13 13 13 13 13 14 14 14 15 14 14 13 13 14 14 14 14 15 15 15 15 15 15 14 14 14 15 15 15
17 17 16 15 14 14 13 13 12 12 12 12 12 12 12 13 13 13 13 13 14 14 14 14 14 13 13 13 14 14 14 14 14 15 15 14 14 13 13 14 14 15 15
16 16 16 15 15 14 13 13 12 11 12 12 12 12 12 13 13 13 14 14 14 14 13 14 14 14 13 13 14 14 14 14 14 14 14 14 14 13 13 14 15 15 15
15 15 14 13 14 13 12 12 12 11 12 12 12 12 12 13 13 14 14 15 15 14 14 14 14 14 14 14 14 14 14 14 14 14 14 14 14 14 13 14 15 16 15
14 14 14 13 13 13 12 12 12 12 12 12 12 12 13 13 13 14 14 14 14 14 14 14 14 14 13 13 13 13 14 14 14 14 14 13 14 15 14 14 15 15 15
14 14 14 13 13 12 12 12 12 12 12 12 12 12 13 13 14 14 14 14 15 15 15 14 13 13 13 14 14 15 14 14 13 13 13 14 14 15 15 15 15 15 15
13 14 14 14 14 12 12 12 12 13 13 13 12 12 12 13 14 14 15 14 14 14 14 14 14 14 14 15 14 14 14 14 13 13 14 14 15 15 15 15 15 15 15
13 13 13 14 13 13 12 12 12 13 13 13 12 12 13 13 14 14 14 14 13 14 14 14 14 14 14 14 13 13 13 13 13 14 14 14 15 16 16 16 16 15 15
13 13 13 13 13 13 12 12 12 12 13 13 13 13 13 13 13 13 13 13 13 13 13 13 13 13 13 13 13 13 14 14 14 14 14 15 15 15 16 16 16 15 15
15 13 13 12 13 13 12 12 12 12 13 13 13 13 14 13 13 13 14 13 14 13 13 13 13 13 13 13 14 14 14 14 14 14 15 15 15 15 16 16 16 16 16
15 15 13 12 13 13 12 12 12 13 14 15 15 14 14 14 14 14 14 13 14 13 13 12 13 14 14 13 13 14 13 13 13 14 14 15 15 15 16 16 16 16 16
15 14 13 13 13 13 13 13 13 14 15 15 16 15 15 14 14 14 14 14 13 13 13 12 13 14 14 13 14 13 13 13 13 14 14 14 14 14 15 16 16 15 15
16 16 16 16 15 15 15 15 14 14 15 15 15 15 15 14 14 14 14 13 13 14 14 13 13 14 14 14 14 14 14 14 14 14 15 14 14 14 15 15 14 13 13
18 18 17 17 16 16 15 15 15 15 15 15 14 15 14 14 14 14 14 14 14 14 13 13 13 13 14 13 13 13 13 14 14 14 14 15 15 15 15 14 13 13 12
20 19 19 19 18 17 17 16 15 15 16 15 15 15 14 14 15 14 13 14 14 13 13 14 14 14 13 13 13 13 13 13 14 14 14 15 15 15 14 14 14 14 14
21 20 19 19 18 17 17 17 16 16 17 16 16 15 16 16 16 14 13 13 14 14 14 14 14 13 13 13 13 12 13 14 14 15 15 15 15 15 15 15 14 14 15
21 20 19 18 18 17 17 17 17 17 17 17 17 17 17 16 15 14 14 15 15 14 14 13 13 13 13 13 13 13 13 14 15 15 15 15 15 15 15 15 15 15 16
21 20 20 19 18 18 18 18 18 18 18 17 16 17 17 17 16 15 15 15 15 14 14 14 14 14 14 14 13 14 14 14 15 15 15 15 15 15 16 16 16 16 15
21 20 20 19 19 19 19 19 18 18 19 18 18 17 17 17 16 16 16 16 16 16 15 15 15 15 15 14 14 14 15 15 16 16 15 15 15 15 15 15 15 16 16
22 21 21 20 20 20 20 20 20 19 19 18 18 17 17 17 17 17 17 17 17 17 17 16 16 15 15 15 15 16 16 16 16 16 16 15 15 15 15 15 16 16 16
23 23 22 22 21 21 22 22 21 21 20 18 18 18 18 18 18 18 18 19 19 18 18 17 16 16 16 16 16 17 17 17 17 17 16 16 16 16 16 16 17 17 17
23 23 24 24 23 22 22 22 22 21 21 20 20 19 19 19 19 19 18 18 18 18 17 17 17 16 16 17 18 18 18 18 18 18 18 18 18 18 17 17 17 17 18
24 24 24 24 23 23 22 22 22 21 21 21 21 21 21 21 20 20 19 19 19 18 17 17 17 17 17 17 18 18 19 19 19 19 19 19 19 19 19 18 18 18 18
Wind_Direction
285 284 282 282 282 281 281 279 279 278 274 274 275 271 270 270 270 270 271 270 271 274 276 277 279 281 279 275 273 273 272 272 272 271 272 273 275 275 273 272 270 271 273
286 284 284 283 282 281 280 278 276 275 273 272 273 271 271 272 270 268 269 271 273 273 278 277 280 283 278 273 272 271 273 273 274 273 272 274 275 275 274 272 272 272 275
286 284 282 282 280 279 279 277 274 272 271 270 271 270 272 272 269 269 271 275 277 277 278 282 282 282 280 279 274 272 273 275 276 275 275 275 274 272 272 272 272 273 276
286 286 282 281 277 278 277 276 272 268 268 271 273 271 270 270 270 271 273 277 279 279 280 281 282 283 281 283 279 278 278 276 277 277 277 277 275 273 272 272 271 273 273
289 287 285 283 278 278 277 276 271 264 266 269 272 274 272 273 273 273 274 276 280 282 282 280 279 280 281 285 285 284 283 282 278 277 278 279 277 274 272 272 272 272 272
288 286 283 284 283 278 276 274 271 268 269 271 272 273 275 277 275 275 276 277 279 278 280 278 278 281 282 284 286 286 284 282 280 281 279 277 275 276 275 275 275 277 277
288 284 287 287 286 283 280 276 272 270 271 272 273 273 275 277 277 278 279 278 279 276 277 279 281 282 283 284 285 288 284 281 280 282 277 277 277 278 277 277 278 280 278
289 288 292 291 290 287 282 276 275 275 274 273 276 277 276 276 277 279 280 280 280 280 279 281 280 281 280 281 285 288 284 282 279 278 277 279 282 281 281 278 279 279 277
288 288 289 290 289 289 283 277 275 274 274 274 276 277 279 276 278 281 281 280 280 280 281 282 282 280 281 283 285 288 284 282 279 277 277 279 282 282 282 281 279 278 278
284 284 285 287 288 287 284 280 276 275 275 275 278 280 280 282 282 284 283 282 280 279 281 280 281 282 282 283 283 285 283 280 278 277 278 279 280 280 280 281 281 279 279
283 282 284 286 287 287 283 280 278 275 276 277 279 282 285 286 286 287 286 285 283 282 281 279 278 279 281 282 283 284 282 278 278 278 278 279 280 281 282 283 282 282 282
282 280 281 281 281 282 280 278 277 275 277 279 281 284 286 287 287 287 287 284 285 284 281 279 276 276 279 283 285 288 283 278 276 276 276 278 280 282 282 284 283 282 283
280 279 277 277 277 278 277 276 276 275 277 280 280 281 284 285 286 286 289 286 285 283 283 279 279 280 280 281 285 287 284 279 276 274 275 276 279 282 283 284 284 282 283
279 278 277 275 276 276 276 276 275 276 278 280 278 279 280 282 284 287 290 289 289 287 284 284 284 285 283 282 285 287 285 278 276 275 276 276 279 281 283 285 286 284 283
280 276 271 270 271 273 275 277 276 277 279 279 277 276 276 278 281 283 287 286 288 288 286 283 284 285 283 283 286 286 285 281 279 279 278 277 280 282 284 287 289 285 281
276 273 272 270 271 274 275 274 274 275 276 277 275 273 274 275 278 279 284 284 283 285 286 286 284 284 283 283 284 283 284 282 281 282 280 278 277 281 285 288 289 284 280
274 272 272 272 271 273 273 271 272 273 274 275 274 274 273 275 276 276 278 281 280 280 282 286 286 286 286 285 283 285 285 282 282 282 279 279 280 282 286 287 287 283 285
275 276 274 272 271 272 271 271 271 271 272 274 274 271 272 274 273 274 278 281 279 279 283 286 287 287 287 287 285 283 284 282 282 280 280 282 283 283 284 284 285 284 283
275 274 274 273 271 270 270 271 271 271 271 270 272 272 272 273 274 273 277 282 284 282 284 284 282 283 288 289 288 286 284 282 281 284 283 284 283 283 284 283 284 283 284
275 272 270 268 270 270 271 272 273 272 271 270 269 271 272 273 272 273 276 281 282 283 283 280 278 280 285 287 287 286 287 285 284 284 284 284 282 282 282 282 283 283 283
275 272 268 267 266 266 268 273 275 275 276 274 272 272 271 270 268 270 275 278 281 282 279 277 277 278 281 284 285 286 285 287 287 286 285 283 280 280 281 283 284 284 284
272 271 269 268 267 267 269 271 275 276 279 277 274 272 270 268 266 269 272 274 277 279 278 278 280 281 281 281 282 284 286 288 289 288 287 284 281 282 284 285 287 288 288
268 268 267 267 266 267 269 269 271 273 276 276 275 272 269 268 269 269 270 272 276 276 278 280 281 282 282 282 282 283 284 285 286 287 287 286 283 283 284 285 288 290 290
264 266 266 265 265 266 268 269 269 270 272 271 270 270 271 271 273 272 271 271 273 274 278 277 278 280 282 281 281 282 282 282 282 283 284 284 283 283 284 287 289 290 290
263 265 265 264 264 266 268 267 268 269 269 269 267 267 270 272 273 273 273 274 276 276 275 274 275 277 278 279 279 280 280 280 280 280 280 282 285 286 285 287 289 290 289
263 264 265 264 264 266 266 267 266 265 266 268 267 266 268 269 270 271 272 274 276 275 273 275 276 276 277 279 280 279 279 278 278 279 278 280 283 285 285 286 288 288 288
Height
5839 5838 5837 5837 5837 5837 5837 5836 5836 5836 5836 5836 5836 5837 5837 5838 5838 5838 5838 5839 5839 5839 5839 5839 5840 5839 5839 5839 5839 5840 5840 5840 5840 5841 5841 5841 5840 5840 5841 5841 5841 5841 5841
5835 5834 5833 5834 5833 5833 5833 5832 5832 5833 5833 5834 5834 5834 5835 5835 5835 5836 5836 5836 5836 5836 5837 5837 5837 5836 5836 5836 5836 5836 5836 5837 5837 5837 5837 5837 5838 5837 5837 5837 5837 5838 5838
5832 5830 5830 5830 5830 5830 5829 5829 5829 5830 5830 5831 5831 5831 5832 5832 5833 5833 5833 5834 5834 5834 5834 5834 5834 5833 5833 5833 5833 5833 5833 5833 5833 5833 5833 5833 5833 5833 5833 5833 5833 5834 5834
5828 5826 5826 5826 5826 5826 5826 5826 5826 5827 5828 5828 5829 5829 5829 5830 5830 5830 5830 5831 5831 5831 5831 5831 5830 5830 5830 5830 5829 5829 5829 5829 5829 5828 5828 5829 5829 5829 5829 5829 5829 5829 5830
5825 5823 5822 5822 5822 5822 5822 5823 5823 5824 5825 5825 5826 5826 5826 5827 5827 5828 5828 5828 5828 5828 5827 5827 5827 5827 5827 5826 5826 5826 5825 5825 5825 5824 5824 5824 5825 5825 5825 5825 5825 5825 5826
5822 5820 5819 5818 5818 5817 5818 5819 5820 5821 5822 5823 5823 5823 5824 5824 5824 5824 5825 5825 5825 5824 5824 5824 5824 5823 5823 5823 5822 5822 5821 5821 5821 5820 5820 5820 5821 5821 5821 5821 5821 5821 5822
5818 5816 5815 5815 5815 5815 5816 5816 5817 5818 5819 5820 5820 5820 5821 5821 5821 5822 5822 5821 5821 5821 5821 5820 5820 5820 5819 5819 5819 5818 5817 5817 5817 5817 5817 5817 5817 5817 5817 5817 5817 5817 5818
5815 5813 5812 5812 5813 5812 5813 5814 5814 5815 5816 5817 5817 5817 5818 5818 5818 5818 5818 5818 5817 5817 5817 5817 5817 5816 5816 5816 5815 5815 5814 5814 5814 5814 5813 5813 5814 5813 5813 5813 5813 5814 5814
5812 5811 5810 5809 5810 5810 5810 5811 5812 5812 5813 5814 5814 5814 5815 5815 5815 5815 5815 5814 5814 5814 5813 5813 5813 5813 5813 5812 5812 5811 5811 5810 5810 5810 5810 5810 5810 5810 5810 5810 5810 5810 5810
5809 5809 5808 5807 5807 5808 5808 5809 5809 5810 5810 5811 5811 5812 5812 5811 5811 5811 5811 5810 5810 5810 5809 5809 5809 5809 5809 5809 5808 5807 5807 5807 5807 5806 5806 5806 5806 5806 5806 5806 5806 5806 5806
5806 5805 5805 5805 5805 5805 5805 5806 5806 5807 5807 5808 5808 5808 5808 5808 5808 5807 5807 5807 5806 5806 5806 5806 5805 5805 5805 5804 5804 5804 5803 5803 5803 5803 5803 5803 5802 5802 5802 5802 5802 5802 5802
5803 5802 5802 5802 5802 5802 5803 5803 5803 5804 5805 5805 5805 5805 5805 5804 5804 5804 5804 5803 5803 5802 5802 5802 5802 5801 5801 5801 5800 5800 5799 5799 5799 5799 5799 5799 5798 5798 5798 5798 5798 5798 5797
5800 5799 5799 5799 5799 5800 5800 5800 5800 5801 5801 5802 5802 5802 5801 5801 5801 5801 5800 5799 5799 5799 5799 5799 5798 5798 5797 5797 5797 5796 5795 5795 5795 5795 5795 5795 5794 5794 5794 5794 5793 5793 5793
5796 5796 5796 5796 5796 5797 5797 5797 5797 5798 5798 5799 5799 5799 5798 5798 5798 5797 5797 5796 5796 5796 5795 5795 5795 5794 5794 5793 5792 5792 5791 5790 5791 5791 5791 5791 5790 5790 5790 5789 5789 5789 5788
5793 5793 5792 5793 5793 5794 5794 5794 5794 5794 5795 5795 5795 5795 5795 5795 5795 5794 5794 5793 5793 5792 5792 5791 5791 5790 5789 5789 5788 5787 5787 5787 5787 5787 5787 5787 5787 5786 5786 5785 5785 5784 5784
5790 5790 5789 5789 5790 5790 5790 5790 5790 5790 5791 5791 5791 5791 5791 5791 5791 5791 5791 5790 5789 5789 5788 5787 5787 5786 5785 5784 5783 5783 5782 5782 5783 5783 5783 5783 5783 5783 5782 5781 5781 5780 5780
5786 5786 5786 5786 5786 5786 5785 5785 5786 5786 5786 5787 5787 5787 5787 5787 5788 5787 5787 5786 5786 5785 5784 5784 5783 5782 5781 5780 5779 5779 5778 5779 5779 5779 5779 5779 5779 5778 5778 5777 5777 5777 5776
5781 5781 5781 5781 5782 5781 5781 5781 5781 5781 5782 5782 5783 5783 5783 5784 5784 5784 5783 5783 5782 5781 5781 5780 5779 5778 5777 5776 5776 5775 5775 5776 5776 5776 5775 5775 5775 5774 5774 5774 5773 5773 5772
5776 5776 5776 5776 5777 5777 5777 5777 5777 5777 5777 5778 5779 5779 5779 5780 5780 5780 5780 5779 5778 5777 5777 5776 5776 5775 5774 5773 5773 5772 5773 5773 5773 5772 5772 5772 5771 5771 5770 5770 5769 5769 5768
5771 5771 5771 5771 5772 5772 5773 5773 5773 5773 5773 5773 5774 5774 5775 5775 5776 5776 5776 5775 5774 5773 5773 5772 5772 5772 5771 5771 5770 5770 5770 5770 5770 5769 5768 5768 5767 5767 5766 5766 5765 5765 5764
5765 5765 5766 5766 5767 5768 5768 5769 5769 5769 5768 5769 5769 5770 5770 5771 5771 5771 5771 5771 5770 5770 5769 5768 5768 5768 5768 5768 5767 5767 5767 5766 5766 5765 5765 5764 5763 5763 5762 5762 5761 5760 5760
5760 5760 5761 5762 5762 5763 5763 5764 5764 5764 5764 5764 5765 5765 5766 5766 5766 5767 5767 5766 5766 5766 5765 5765 5764 5764 5764 5764 5764 5764 5763 5763 5762 5761 5761 5760 5759 5759 5758 5757 5757 5756 5756
5755 5755 5756 5756 5757 5758 5758 5759 5759 5759 5759 5760 5760 5760 5761 5761 5761 5762 5762 5762 5761 5761 5761 5761 5760 5760 5760 5760 5760 5759 5759 5759 5758 5757 5757 5756 5756 5755 5754 5753 5752 5751 5751
5749 5750 5750 5751 5752 5752 5753 5753 5754 5754 5755 5755 5756 5756 5756 5757 5757 5756 5757 5757 5756 5756 5756 5756 5756 5756 5755 5755 5755 5755 5754 5754 5754 5753 5753 5752 5751 5751 5750 5750 5748 5747 5746
5743 5743 5744 5745 5746 5746 5747 5747 5748 5749 5749 5750 5750 5751 5751 5751 5751 5751 5751 5751 5751 5751 5751 5751 5751 5751 5751 5750 5750 5750 5749 5749 5749 5748 5748 5748 5747 5746 5746 5745 5744 5743 5742
5736 5737 5737 5738 5739 5740 5741 5741 5742 5743 5743 5744 5744 5745 5745 5746 5746 5746 5746 5746 5746 5746 5746 5746 5745 5745 5745 5745 5745 5744 5744 5743 5743 5743 5742 5742 5742 5741 5740 5740 5739 5738 5737